{"data":{"norad_id":60145,"epoch":"2026-05-24T21:29:42.781056Z","epoch_age_seconds":94130,"freshness":"FRESH","line1":"1 60145U 24120L   26144.89563404  .00000451  00000+0  25026-4 0  9999","line2":"2 60145  53.1609 325.9552 0000680  86.4587 273.6493 15.33546726108044","mean_motion":15.33546726,"eccentricity":6.8e-5,"inclination_deg":53.1609,"raan_deg":325.9552,"arg_perigee_deg":86.4587,"mean_anomaly_deg":273.6493,"bstar":2.5026e-5,"rev_number":10804,"period_min":93.899975500323,"perigee_km":464.77517653157,"apogee_km":465.70587587514,"semimajor_km":6843.3775262034,"source":"CELESTRAK","updated_at":"2026-05-25T13:38:19.189898Z"}}